When you browse on this site, cookies collect data to enhance your experience and personalize the content and advertising you see.
Visit our Privacy Policy to learn more. By continuing to use the site, you agree to this use of cookies and data.
  • In Austria
  • List of Countries
  • For 7 days
  • Water Temperature
  • Satellite Maps
  • Weather Map
  • News
  • Weather Widgets
  • user-avatar
    Login

    Hourly Weather Newcastle

    Today, 18 July, Thursday

    Time Temperature Precipitation Wind Pressure Humidity
    00:00 +8°C° 0 mm 6 mps 761 mmHg 69%
    01:00 +8°C° 0 mm 6 mps 760 mmHg 69%
    02:00 +8°C° 0 mm 6 mps 760 mmHg 68%
    03:00 +8°C° 0 mm 6 mps 760 mmHg 67%
    04:00 +8°C° 0 mm 6 mps 759 mmHg 68%
    05:00 +8°C° 0 mm 6 mps 760 mmHg 70%
    06:00 +8°C° 0 mm 6 mps 760 mmHg 71%
    07:00 +8°C° 0 mm 6 mps 761 mmHg 72%
    08:00 +10°C° 0 mm 5 mps 761 mmHg 67%
    09:00 +12°C° 0 mm 5 mps 761 mmHg 62%
    10:00 +14°C° 0 mm 6 mps 761 mmHg 56%
    11:00 +15°C° 0 mm 6 mps 761 mmHg 51%
    12:00 +17°C° 0 mm 5 mps 760 mmHg 46%
    13:00 +19°C° 0 mm 4 mps 760 mmHg 40%
    14:00 +19°C° 0 mm 4 mps 760 mmHg 42%
    15:00 +18°C° 0 mm 3 mps 760 mmHg 45%
    16:00 +18°C° 0 mm 2 mps 760 mmHg 47%
    17:00 +16°C° 0 mm 2 mps 761 mmHg 52%
    18:00 +14°C° 0 mm 1 mps 762 mmHg 57%
    19:00 +12°C° 0 mm 1 mps 762 mmHg 62%
    20:00 +10°C° 0 mm 2 mps 762 mmHg 63%
    21:00 +10°C° 0 mm 2 mps 763 mmHg 64%
    22:00 +9°C° 0 mm 3 mps 763 mmHg 66%
    23:00 +8°C° 0 mm 4 mps 763 mmHg 68%

    Tomorrow, 19 July, Friday

    Time Temperature Precipitation Wind Pressure Humidity
    00:00 +7°C° 0 mm 4 mps 763 mmHg 71%
    01:00 +7°C° 0 mm 5 mps 763 mmHg 73%
    02:00 +6°C° 0 mm 5 mps 763 mmHg 74%
    03:00 +6°C° 0 mm 5 mps 763 mmHg 75%
    04:00 +5°C° 0 mm 5 mps 763 mmHg 76%
    05:00 +5°C° 0 mm 5 mps 764 mmHg 76%
    06:00 +5°C° 0 mm 5 mps 764 mmHg 75%
    07:00 +3°C° 0 mm 5 mps 764 mmHg 75%
    08:00 +7°C° 0 mm 5 mps 764 mmHg 67%
    09:00 +10°C° 0 mm 4 mps 764 mmHg 60%
    10:00 +12°C° 0 mm 4 mps 765 mmHg 52%
    11:00 +13°C° 0 mm 3 mps 764 mmHg 48%
    12:00 +16°C° 0 mm 3 mps 764 mmHg 45%
    13:00 +18°C° 0 mm 2 mps 763 mmHg 41%
    14:00 +17°C° 0 mm 2 mps 764 mmHg 45%
    15:00 +17°C° 0 mm 2 mps 764 mmHg 50%
    16:00 +16°C° 0 mm 2 mps 764 mmHg 54%
    17:00 +14°C° 0 mm 1 mps 764 mmHg 62%
    18:00 +12°C° 0 mm 1 mps 765 mmHg 70%
    19:00 +10°C° 0 mm 1 mps 766 mmHg 78%
    20:00 +10°C° 0 mm 1 mps 766 mmHg 79%
    21:00 +10°C° 0 mm 1 mps 766 mmHg 80%
    22:00 +8°C° 0 mm 2 mps 767 mmHg 82%
    23:00 +8°C° 0 mm 2 mps 767 mmHg 82%

    Day after tomorrow, 20 July, Saturday

    Time Temperature Precipitation Wind Pressure Humidity
    00:00 +8°C° 0 mm 2 mps 766 mmHg 82%
    01:00 +7°C° 0 mm 2 mps 766 mmHg 82%
    02:00 +7°C° 0 mm 2 mps 766 mmHg 83%
    03:00 +7°C° 0 mm 2 mps 766 mmHg 84%
    04:00 +6°C° 0 mm 2 mps 766 mmHg 85%
    05:00 +6°C° 0 mm 2 mps 766 mmHg 86%
    06:00 +6°C° 0 mm 2 mps 767 mmHg 87%
    07:00 +6°C° 0 mm 2 mps 767 mmHg 88%
    08:00 +8°C° 0 mm 2 mps 767 mmHg 77%
    09:00 +12°C° 0 mm 2 mps 767 mmHg 66%
    10:00 +15°C° 0 mm 2 mps 766 mmHg 55%
    11:00 +16°C° 0 mm 2 mps 766 mmHg 51%
    12:00 +18°C° 0 mm 3 mps 765 mmHg 47%
    13:00 +19°C° 0 mm 3 mps 764 mmHg 43%
    14:00 +19°C° 0 mm 3 mps 764 mmHg 45%
    15:00 +19°C° 0 mm 3 mps 763 mmHg 48%
    16:00 +18°C° 0 mm 3 mps 763 mmHg 51%
    17:00 +16°C° 0 mm 3 mps 764 mmHg 57%
    18:00 +13°C° 0 mm 3 mps 764 mmHg 63%
    19:00 +11°C° 0 mm 3 mps 764 mmHg 69%
    20:00 +10°C° 0 mm 3 mps 764 mmHg 71%
    21:00 +10°C° 0 mm 3 mps 764 mmHg 73%
    22:00 +9°C° 0 mm 3 mps 764 mmHg 74%
    23:00 +9°C° 0 mm 3 mps 764 mmHg 74%

    21 July, Sunday

    Time Temperature Precipitation Wind Pressure Humidity
    00:00 +8°C° 0 mm 3 mps 764 mmHg 74%
    01:00 +8°C° 0 mm 3 mps 764 mmHg 74%
    02:00 +7°C° 0 mm 3 mps 763 mmHg 73%
    03:00 +7°C° 0 mm 3 mps 763 mmHg 73%
    04:00 +6°C° 0 mm 4 mps 763 mmHg 72%
    05:00 +7°C° 0 mm 3 mps 763 mmHg 73%
    06:00 +5°C° 0 mm 3 mps 763 mmHg 73%
    07:00 +5°C° 0 mm 3 mps 763 mmHg 74%
    08:00 +9°C° 0 mm 3 mps 763 mmHg 65%
    09:00 +12°C° 0 mm 3 mps 763 mmHg 56%
    10:00 +16°C° 0 mm 3 mps 763 mmHg 47%
    11:00 +17°C° 0 mm 4 mps 762 mmHg 45%
    12:00 +19°C° 0 mm 4 mps 761 mmHg 43%
    13:00 +21°C° 0 mm 5 mps 760 mmHg 42%
    14:00 +21°C° 0 mm 4 mps 760 mmHg 44%
    15:00 +20°C° 0 mm 4 mps 760 mmHg 47%
    16:00 +20°C° 0 mm 4 mps 760 mmHg 50%
    17:00 +18°C° 0 mm 4 mps 761 mmHg 57%
    18:00 +16°C° 0 mm 3 mps 761 mmHg 63%
    19:00 +13°C° 0 mm 3 mps 762 mmHg 70%
    20:00 +13°C° 0 mm 3 mps 762 mmHg 74%
    21:00 +12°C° 0 mm 3 mps 762 mmHg 77%
    22:00 +11°C° 0 mm 3 mps 762 mmHg 80%
    23:00 +11°C° 0 mm 3 mps 762 mmHg 83%

    22 July, Monday

    Time Temperature Precipitation Wind Pressure Humidity
    00:00 +10°C° 0 mm 3 mps 762 mmHg 85%
    01:00 +10°C° 0 mm 3 mps 762 mmHg 87%
    02:00 +10°C° 0 mm 3 mps 762 mmHg 88%
    03:00 +10°C° 0 mm 3 mps 762 mmHg 88%
    04:00 +10°C° 0 mm 3 mps 762 mmHg 89%
    05:00 +10°C° 0 mm 2 mps 763 mmHg 90%
    06:00 +9°C° 0 mm 2 mps 763 mmHg 90%
    07:00 +9°C° 0 mm 2 mps 763 mmHg 91%
    08:00 +12°C° 0 mm 2 mps 764 mmHg 82%
    09:00 +14°C° 0 mm 2 mps 764 mmHg 73%
    10:00 +16°C° 0 mm 2 mps 764 mmHg 64%
    11:00 +18°C° 0 mm 2 mps 763 mmHg 58%
    12:00 +21°C° 0 mm 1 mps 763 mmHg 52%
    13:00 +22°C° 0 mm 1 mps 762 mmHg 46%
    14:00 +22°C° 0 mm 1 mps 762 mmHg 48%
    15:00 +20°C° 0 mm 2 mps 762 mmHg 50%
    16:00 +20°C° 0 mm 2 mps 762 mmHg 53%
    17:00 +18°C° 0 mm 2 mps 762 mmHg 58%
    18:00 +16°C° 0 mm 3 mps 763 mmHg 64%
    19:00 +13°C° 0 mm 3 mps 763 mmHg 69%
    20:00 +13°C° 0 mm 3 mps 763 mmHg 71%
    21:00 +12°C° 0 mm 3 mps 763 mmHg 73%
    22:00 +12°C° 0 mm 2 mps 764 mmHg 75%
    23:00 +12°C° 0 mm 2 mps 763 mmHg 76%

    23 July, Tuesday

    Time Temperature Precipitation Wind Pressure Humidity
    00:00 +12°C° 0 mm 2 mps 763 mmHg 77%
    01:00 +10°C° 0 mm 2 mps 763 mmHg 78%
    02:00 +10°C° 0 mm 2 mps 763 mmHg 78%
    03:00 +10°C° 0 mm 2 mps 763 mmHg 79%
    04:00 +9°C° 0 mm 3 mps 762 mmHg 80%
    05:00 +9°C° 0 mm 3 mps 763 mmHg 80%
    06:00 +9°C° 0 mm 3 mps 763 mmHg 79%
    07:00 +9°C° 0 mm 3 mps 763 mmHg 79%
    08:00 +11°C° 0 mm 3 mps 763 mmHg 71%
    09:00 +14°C° 0 mm 3 mps 763 mmHg 62%
    10:00 +18°C° 0 mm 4 mps 763 mmHg 53%
    11:00 +19°C° 0 mm 4 mps 762 mmHg 48%
    12:00 +20°C° 0 mm 5 mps 762 mmHg 43%
    13:00 +22°C° 0 mm 5 mps 761 mmHg 39%
    14:00 +21°C° 0 mm 5 mps 761 mmHg 41%
    15:00 +21°C° 0 mm 4 mps 761 mmHg 42%
    16:00 +21°C° 0 mm 3 mps 761 mmHg 44%
    17:00 +19°C° 0 mm 4 mps 761 mmHg 48%
    18:00 +17°C° 0 mm 4 mps 761 mmHg 51%
    19:00 +14°C° 0 mm 4 mps 762 mmHg 55%
    20:00 +13°C° 0 mm 4 mps 762 mmHg 57%
    21:00 +12°C° 0 mm 4 mps 762 mmHg 60%
    22:00 +11°C° 0 mm 4 mps 762 mmHg 62%
    23:00 +10°C° 0 mm 4 mps 762 mmHg 63%
    Show more